Location: Ocean City
(38.3360°N, 75.0850°W)
Time: 10:26:20
(UTC-05:00)

A-11 Canister half - All Passes

Search period start: 17 November 2019 00:00
Search period end: 27 November 2019 00:00
Orbit: 1527 x 1682 km, 47.3° (Epoch: 16 November)

Date Brightness Start Highest point End Pass type
(mag) Time Alt. Az. Time Alt. Az. Time Alt. Az.
17 Nov - 10:07:28 10° S 10:15:58 32° SE 10:24:17 10° ENE daylight
17 Nov - 12:10:14 10° SW 12:20:19 90° SSE 12:30:08 10° ENE daylight
17 Nov - 14:16:37 10° W 14:26:15 53° N 14:35:35 10° ENE daylight
17 Nov - 16:23:12 10° WNW 16:32:47 57° NNE 16:42:02 10° E daylight
17 Nov - 18:28:42 10° WNW 18:38:12 72° SW 18:47:27 10° SE visible
17 Nov - 20:35:38 10° W 20:41:55 20° SW 20:48:09 10° SSW visible
18 Nov - 09:46:03 10° S 09:54:22 30° SE 10:02:32 10° ENE daylight
18 Nov - 11:48:34 10° SW 11:58:40 87° SSE 12:08:30 10° ENE daylight
18 Nov - 13:54:51 10° W 14:04:32 53° N 14:13:54 10° ENE daylight
18 Nov - 16:01:31 10° WNW 16:11:05 56° NNE 16:20:21 10° E daylight
18 Nov - 18:07:01 10° WNW 18:16:35 75° SW 18:25:53 10° SE visible
18 Nov - 20:13:45 10° W 20:20:22 22° SW 20:26:55 10° S visible
19 Nov - 09:24:39 10° S 09:32:47 29° SE 09:40:47 10° ENE daylight
19 Nov - 11:26:54 10° SW 11:37:01 84° SE 11:46:51 10° ENE daylight
19 Nov - 13:33:06 10° W 13:42:50 54° NNW 13:52:15 10° ENE daylight
19 Nov - 15:39:48 10° WNW 15:49:24 56° NNE 15:58:39 10° E daylight
19 Nov - 17:45:21 10° WNW 17:54:58 78° SW 18:04:17 10° SE visible
19 Nov - 19:51:55 10° WNW 19:58:49 23° SW 20:05:39 10° S visible
20 Nov - 09:03:17 10° S 09:11:11 27° SE 09:18:59 10° ENE daylight
20 Nov - 11:05:15 10° SW 11:15:21 81° SE 11:25:13 10° ENE daylight
20 Nov - 13:11:21 10° W 13:21:07 55° NNW 13:30:35 10° ENE daylight
20 Nov - 15:18:05 10° WNW 15:27:41 55° NNE 15:36:58 10° E daylight
20 Nov - 17:23:41 10° WNW 17:33:21 81° SW 17:42:42 10° SE visible
20 Nov - 19:30:05 10° WNW 19:37:17 25° SW 19:44:23 10° S visible
21 Nov - 08:41:55 10° S 08:49:36 25° SE 08:57:11 10° ENE daylight
21 Nov - 10:43:36 10° SW 10:53:42 78° SE 11:03:34 10° ENE daylight
21 Nov - 12:49:35 10° W 12:59:24 56° NNW 13:08:55 10° ENE daylight
21 Nov - 14:56:22 10° WNW 15:05:59 54° N 15:15:16 10° E daylight
21 Nov - 17:02:00 10° WNW 17:11:43 84° SW 17:21:07 10° SE visible
21 Nov - 19:08:17 10° WNW 19:15:43 27° SW 19:23:04 10° S visible
22 Nov - 08:20:35 10° S 08:28:02 24° SE 08:35:22 10° ENE daylight
22 Nov - 10:21:57 10° SW 10:32:03 76° SE 10:41:55 10° ENE daylight
22 Nov - 12:27:49 10° W 12:37:41 57° NNW 12:47:15 10° ENE daylight
22 Nov - 14:34:39 10° WNW 14:44:16 53° N 14:53:34 10° E daylight
22 Nov - 16:40:20 10° WNW 16:50:05 87° SSW 16:59:30 10° SE daylight
22 Nov - 18:46:29 10° WNW 18:54:10 29° SW 19:01:43 10° S visible
23 Nov - 07:59:17 10° S 08:06:26 22° SE 08:13:31 10° E daylight
23 Nov - 10:00:20 10° SW 10:10:23 73° SE 10:20:16 10° ENE daylight
23 Nov - 12:06:05 10° W 12:15:58 58° NNW 12:25:36 10° ENE daylight
23 Nov - 14:12:55 10° WNW 14:22:34 53° N 14:31:52 10° E daylight
23 Nov - 16:18:39 10° WNW 16:28:27 90° SSW 16:37:54 10° SE daylight
23 Nov - 18:24:42 10° WNW 18:32:36 30° SW 18:40:21 10° S visible
24 Nov - 07:38:01 10° SSE 07:44:51 21° SE 07:51:38 10° E daylight
24 Nov - 09:38:43 10° SW 09:48:45 70° SE 09:58:36 10° ENE daylight
24 Nov - 11:44:19 10° W 11:54:15 59° NNW 12:03:55 10° ENE daylight
24 Nov - 13:51:12 10° WNW 14:00:51 52° N 14:10:11 10° E daylight
24 Nov - 15:56:58 10° WNW 16:06:48 88° NNE 16:16:16 10° ESE daylight
24 Nov - 18:02:56 10° WNW 18:11:02 32° SW 18:18:59 10° S visible
25 Nov - 07:16:47 10° SSE 07:23:17 19° SE 07:29:43 10° E daylight
25 Nov - 09:17:05 10° SW 09:27:06 67° SE 09:36:57 10° ENE daylight
25 Nov - 11:22:34 10° W 11:32:32 61° NNW 11:42:16 10° ENE daylight
25 Nov - 13:29:27 10° WNW 13:39:08 52° N 13:48:28 10° E daylight
25 Nov - 15:35:17 10° WNW 15:45:09 85° NNE 15:54:39 10° ESE daylight
25 Nov - 17:41:10 10° WNW 17:49:28 34° SW 17:57:36 10° S visible
26 Nov - 06:55:36 10° SSE 07:01:42 18° ESE 07:07:46 10° E daylight
26 Nov - 08:55:29 10° SW 09:05:28 64° SE 09:15:17 10° ENE daylight
26 Nov - 11:00:50 10° W 11:10:50 62° NNW 11:20:36 10° ENE daylight
26 Nov - 13:07:43 10° WNW 13:17:24 51° N 13:26:46 10° E daylight
26 Nov - 15:13:37 10° WNW 15:23:30 82° NNE 15:33:01 10° ESE daylight
26 Nov - 17:19:25 10° WNW 17:27:54 36° SW 17:36:11 10° SSE visible
